Weather in Shpikulovo

Russia / Tambov Oblast     51°44′51″N   41°52′21″E
temp.,
°C
wind,
m/s
gust,
m/s
humid.,
%
clouds,
%
prec.,
mm/h
press.,
hPa
HPBL,
m
19 september, sun
sun1900:00+8e61069100 1.1 1021466
03:00+8ese61173100 1.2 1020418
06:00+8ese61363100 0.0 1020413
09:00+12ese71344100 0.0 1019655
12:00+14ese81139100 0.0 10181051
15:00+12ese81559100 0.6 1018806
18:00+12ese81548100 0.1 1017767
21:00+12e91744100 0.6 1015838
20 september, mon
mon2000:00+11ese111854100 0.2 1014966
03:00+9se91785100 2.0 1014744
06:00+8se81792100 7.1 1013832
09:00+8se81588100 10.2 1013665
12:00+9ese81488100 0.4 1013642
15:00+10se81483100 0.4 1013618
18:00+9ese81478100 0.1 1013529
21:00+10se61289100 0.1 1014458
21 september, tue
tue2100:00+9se6129353 0.0 1014296
03:00+9se489499 0.3 1014294
06:00+9ese71194100 0.5 1013235
09:00+11se468571 0.6 1013411
12:00+14se337466 0.0 1013725
15:00+15sw3571100 0.9 1012400
18:00+13w226514 0.1 101211
21:00+10nw347998 0.1 101384
22 september, wed
wed2200:00+11wnw2381100 0.0 101391
03:00+10nnw128599 0.0 101344
06:00+9nw119085 0.1 101413
09:00+12wsw227577 0.1 1014478
12:00+15ssw236166 0.6 10141005
15:00+15wsw225646 0.9 10141096
18:00+13sw226589 0.0 101540
21:00+11nw3672100 0.0 1016208
23 september, thu
thu2300:00+11nnw2376100 0.0 101696
03:00+11nw2277100 0.0 101560
06:00+10wnw117896 0.0 101521
09:00+13w236290 0.0 1015420
12:00+17sse2439100 0.0 10141758
15:00+18se4740100 0.0 10132050
18:00+15sse3553100 0.0 1013115
21:00+13sse4963100 0.0 1013344